Simultaneous Nadir Overpasses (SNOs) Predictions

Prediction of SNOs between AQUA and METOP-C Satellite Orbit:

Table of predicted SNOs for the next 14.0 days since TLE Epoch: 7/2/2022
Index Date (AQUA) Time (AQUA) Lat,Lon (AQUA) SZA (AQUA ) Date (METOP-C) Time (METOP-C) Lat,Lon (METOP-C) SZA (METOP-C ) Distance(km) Time Diff (sec)
1 07/02/2022 21:01:27 73.96,-140.73 51.00 07/02/2022 21:01:01 73.97,-140.62 51.01 3.46 26
2 07/02/2022 21:50:53 -74.01, 26.80 128.94 07/02/2022 21:51:43 -74.01, 26.80 128.95 0.75 50
3 07/05/2022 15:45:40 -73.92, 118.32 128.80 07/05/2022 15:44:46 -73.90, 118.27 128.81 2.96 54
4 07/05/2022 16:35:08 73.96, -74.14 51.26 07/05/2022 16:35:23 73.98, -74.18 51.28 2.87 15
5 07/05/2022 17:24:47 -74.68, 91.81 127.97 07/05/2022 17:25:52 -74.66, 94.87 128.10 90.21 65
6 07/08/2022 10:29:44 73.31, 18.59 50.85 07/08/2022 10:28:38 73.27, 15.91 50.93 85.75 66
7 07/08/2022 11:19:22 -73.98,-175.23 128.43 07/08/2022 11:19:07 -73.96,-175.17 128.45 3.03 15
8 07/08/2022 12:08:50 74.03, -7.69 51.63 07/08/2022 12:09:44 74.05, -7.62 51.64 3.12 54
9 07/11/2022 06:03:35 73.91, 83.89 51.85 07/11/2022 06:02:46 73.93, 83.84 51.88 2.63 49
10 07/11/2022 06:53:02 -74.01,-108.68 128.05 07/11/2022 06:53:27 -74.02,-108.63 128.04 2.19 25
11 07/14/2022 00:47:46 -73.80, -16.90 127.88 07/14/2022 00:46:34 -73.70, -17.65 127.94 25.84 72
12 07/14/2022 01:37:17 74.00, 150.27 52.35 07/14/2022 01:37:07 73.99, 150.38 52.33 3.66 10
13 07/14/2022 02:26:43 -74.04, -42.17 127.61 07/14/2022 02:27:49 -74.02, -42.21 127.63 2.45 66



Historial Predications of SNOs between AQUA and METOP-C
